Location: Clatteringshaws Loch
(55.0508°N, 4.2860°W)
Time: 07:39:38
(UTC+00:00)

ALOS - Visible Passes

Search period start: 28 February 2017 00:00
Search period end: 10 March 2017 00:00
Orbit: 685 x 686 km, 97.9° (Epoch: 27 February)

Date Brightness Start Highest point End Pass type
(mag) Time Alt. Az. Time Alt. Az. Time Alt. Az.
28 Feb 3.9 19:54:14 10° SSW 19:58:31 35° W 20:02:50 10° NNW visible
01 Mar 2.2 18:53:46 10° SSE 18:58:27 79° ENE 19:03:09 10° NNW visible
01 Mar 5.0 20:33:14 10° SW 20:36:29 18° W 20:39:43 10° NW visible
02 Mar 3.1 19:31:31 10° S 19:36:05 53° W 19:40:42 10° NNW visible
03 Mar 2.4 18:31:39 10° SE 18:36:11 53° ENE 18:40:46 10° N visible
03 Mar 4.4 20:09:58 10° SSW 20:13:55 27° W 20:17:55 10° NW visible
04 Mar 2.4 19:09:02 10° SSE 19:13:43 79° WSW 19:18:26 10° NNW visible
04 Mar 5.3 20:49:35 10° WSW 20:51:58 14° W 20:54:22 10° NW visible
05 Mar 3.7 19:47:03 10° SSW 19:51:26 39° W 19:55:52 10° NNW visible
06 Mar 2.2 18:46:46 10° SSE 18:51:25 70° ENE 18:56:06 10° NNW visible
06 Mar 4.9 20:25:53 10° SW 20:29:22 20° W 20:32:52 10° NW visible
07 Mar 2.9 19:24:25 10° S 19:29:02 59° W 19:33:41 10° NNW visible
07 Mar 5.6 21:07:14 10° W 21:07:30 10° W 21:07:46 10° WNW visible
08 Mar 4.3 20:02:43 10° SSW 20:06:50 30° W 20:10:58 10° NNW visible
09 Mar 2.3 19:01:59 10° SSE 19:06:41 88° WSW 19:11:24 10° NNW visible
09 Mar 5.2 20:42:03 10° WSW 20:44:51 15° W 20:47:38 10° NW visible
